{"data":{"norad_id":47346,"intl_designator":"2021-004A","name":"GMS-T","alt_names":[],"object_type":"PAYLOAD","status":"ACTIVE","operator":null,"country":"GER","launch_date":"2021-01-20","launch_site_code":"RLLB","launch_vehicle":null,"mission":null,"orbit_class":"UNKNOWN","rcs_meters":null,"size_class":null,"mass_kg":null,"dimensions":null,"purposes":[],"wikipedia_slug":null,"has_3d_model":false,"image_url":null,"decayed_at":null,"tle_current":{"epoch":"2026-05-25T05:07:23.200608Z","epoch_age_seconds":59816,"freshness":"FRESH","line1":"1 47346U 21004A   26145.21346297 -.00000013  00000+0 -54255-4 0  9993","line2":"2 47346  90.1296 241.5440 0004480 103.1280 257.0352 13.16658323256571","mean_motion":13.16658323,"eccentricity":0.000448,"inclination_deg":90.1296,"raan_deg":241.544,"arg_perigee_deg":103.128,"mean_anomaly_deg":257.0352,"bstar":-5.4255e-5,"rev_number":25657,"period_min":109.36778166707,"perigee_km":1194.1170227956,"apogee_km":1200.9048033257,"semimajor_km":7575.6479130607,"source":"CELESTRAK","updated_at":"2026-05-25T13:37:56.435088Z"}}}